Regional Weather Roundup
Issued by NWS

Home | Current Version | Previous Version | Text Only | Print | Product List | Glossary Off
Versions: 1 2 3 4 5 6 7 8 9 10 11 12 13 14 15 16 17 18 19 20 21 22 23 24 25 26 27 28 29 30 31 32 33 34 35 36 37 38 39 40 41 42 43 44 45 46 47 48 49 50

459
ASUS44 KJAN 231110
RWRMS

MISSISSIPPI HOURLY WEATHER ROUNDUP
NATIONAL WEATHER SERVICE JACKSON MS
600 AM CDT THU OCT 23 2014

NOTE: "FAIR: INDICATES FEW OR NO CLOUDS BELOW 12,000 FEET WITH NO
SIGNIFICANT WEATHER AND/OR OBSTRUCTIONS TO VISIBILITY.

MSZ001>002-007>008-010>013-018>021-025>028-034>036-231200-
NORTHWEST MISSISSIPPI

CITY           SKY/WX    TMP DP  RH WIND       PRES   REMARKS
CLARKSDALE     FAIR      45  45 100 CALM      30.19R
CLEVELAND      FAIR      46  46  98 N3        30.17R
GREENWOOD      CLEAR     40  39  97 CALM      30.17R FOG
GREENVILLE     MOCLDY    46  43  89 NE6       30.17R
GRENADA          N/A    N/A N/A N/A MISG        N/A
OLIVE BRANCH   CLEAR     43  43 100 E6        30.17F
OXFORD         FAIR      39  37  93 CALM      30.18S
TUNICA         MOSUNNY   43  41  93 CALM      30.19R
$$

MSZ003>006-009-014>017-022>024-029>033-037>039-231200-
NORTHEAST MISSISSIPPI

CITY           SKY/WX    TMP DP  RH WIND       PRES   REMARKS
COLUMBUS AFB   CLEAR     42  41  97 N2        30.16R
CORINTH        FOG       37  36  93 CALM      30.18S VSB 3/4
GOLDN TRIANGLE CLEAR     43  36  75 CALM      30.14R
STARKVILLE     FAIR      45  41  87 CALM      30.14S
TUPELO         CLEAR     40  37  89 NE6       30.16S
$$

MSZ040-058-231200-
CENTRAL MISSISSIPPI

CITY           SKY/WX    TMP DP  RH WIND       PRES   REMARKS
JACKSON INTL   CLEAR     45  42  89 CALM      30.13R
JACKSON HAWKNS CLEAR     46  43  89 CALM      30.14R
MERIDIAN KEY   CLEAR     39  38  96 CALM      30.13R
MERIDIAN NAS   CLEAR     42  39  89 CALM      30.13S
RAYMOND        FAIR      41  37  87 CALM      30.14S FOG
VICKSBURG      CLEAR     46  45  96 CALM      30.14S
$$

MSZ059>079-231200-
SOUTH MISSISSIPPI

CITY           SKY/WX    TMP DP  RH WIND       PRES   REMARKS
BROOKHAVEN     FAIR      43  43 100 CALM      30.13R
COLUMBIA         N/A    N/A N/A N/A MISG        N/A
HATTIESBURG    CLEAR     42  41  96 CALM      30.11R
MCCOMB         CLEAR     50  44  80 N6        30.10R
NATCHEZ        CLEAR     45  43  93 N3        30.12S
PINE BELT      CLEAR     46  39  76 NE6       30.11R
$$

MSZ080>082-231200-
COASTAL MISSISSIPPI

CITY           SKY/WX    TMP DP  RH WIND       PRES   REMARKS
BILOXI         CLEAR     51  45  81 NE9       30.07S
PASCAGOULA     CLEAR     45  42  89 N5        30.08R
GULFPORT       CLEAR     51  44  77 NE7       30.07S
$$



USA.gov is the U.S. government's official web portal to all federal, state and local government web resources and services.